Погода в Шах-Аламе

Малайзия     3°03′40″N   101°30′44″E
темп.,
°C
ветер,
м/с
пор.,
м/с
влажн.,
%
обл.,
%
осадки,
мм/ч
давл.,
гПа
погр.,
м
14 мая, пт
пт1423:00+25ссв009594 5.4 100817
02:00+25в0092100 5.5 100712
05:00+25в009397 0.2 100512
08:00+26в009189 0.6 100743
11:00+29сз117787 2.2 1008646
14:00+30з227298 3.4 1006908
17:00+31зюз227134 1.6 1004900
20:00+26з1290100 3.0 100618
15 мая, сб
сб1523:00+25зсз0090100 0.9 100812
02:00+25всв009190 1.3 100712
05:00+24ссз119325 0.4 100612
08:00+26всв019191 0.4 100751
11:00+29юз11776 3.7 1008364
14:00+30ююз227361 7.1 1006788
17:00+31зюз116747 0.8 10041003
20:00+26зсз2288100 1.4 100629
16 мая, вс
вс1623:00+24ююв0095100 5.6 100813
02:00+24ссв0094100 8.3 100715
05:00+24всв119320 0.2 100614
08:00+25всв019123 0.3 100750
11:00+29юз017869 2.9 1009578
14:00+30з227175 4.8 1006959
17:00+31зсз226878 1.3 10051041
20:00+26з2287100 1.6 100733
17 мая, пн
пн1723:00+25зсз118695 0.1 100813
02:00+25с0092100 0.9 100711
05:00+24ссз009397 1.8 100712
08:00+25ю0092100 2.8 100851
11:00+28ю118398 2.2 1010351
14:00+30зюз2277100 4.8 1007875
17:00+29зсз127779 3.5 1005430
20:00+26зсз2290100 7.9 100717
18 мая, вт
вт1823:00+25ссз119361 0.3 100914
02:00+24ссз119498 0.3 100813
05:00+24ссз119580 1.7 100812
08:00+25юв119248 1.8 100950
11:00+28ююв228399 3.6 1010532
14:00+29юз128091 8.1 1008729
17:00+29з127588 2.7 1006893
20:00+26з1188100 2.8 100813